#datetime,building,power
2023-07-10T00:00:00,mcc,39.75
2023-07-10T00:01:00,mcc,39.84
2023-07-10T00:02:00,mcc,40.47
2023-07-10T00:03:00,mcc,38.26
2023-07-10T00:04:00,mcc,39.50
2023-07-10T00:05:00,mcc,40.23
2023-07-10T00:06:00,mcc,40.06
2023-07-10T00:07:00,mcc,40.52
2023-07-10T00:08:00,mcc,40.50
2023-07-10T00:09:00,mcc,41.72
2023-07-10T00:10:00,mcc,39.51
2023-07-10T00:11:00,mcc,39.19
2023-07-10T00:12:00,mcc,39.80
2023-07-10T00:13:00,mcc,39.39
2023-07-10T00:14:00,mcc,39.64
2023-07-10T00:15:00,mcc,54.74
2023-07-10T00:16:00,mcc,55.34
2023-07-10T00:17:00,mcc,37.63
2023-07-10T00:18:00,mcc,37.18
2023-07-10T00:19:00,mcc,38.17
2023-07-10T00:20:00,mcc,37.45
2023-07-10T00:21:00,mcc,40.37
2023-07-10T00:22:00,mcc,42.09
2023-07-10T00:23:00,mcc,42.20
2023-07-10T00:24:00,mcc,41.01
2023-07-10T00:25:00,mcc,41.00
2023-07-10T00:26:00,mcc,40.12
2023-07-10T00:27:00,mcc,42.26
2023-07-10T00:28:00,mcc,42.64
2023-07-10T00:29:00,mcc,44.04
2023-07-10T00:30:00,mcc,43.37
2023-07-10T00:31:00,mcc,39.42
2023-07-10T00:32:00,mcc,40.23
2023-07-10T00:33:00,mcc,39.69
2023-07-10T00:34:00,mcc,38.97
2023-07-10T00:35:00,mcc,38.08
2023-07-10T00:36:00,mcc,40.32
2023-07-10T00:37:00,mcc,47.37
2023-07-10T00:38:00,mcc,36.62
2023-07-10T00:39:00,mcc,38.30
2023-07-10T00:40:00,mcc,38.86
2023-07-10T00:41:00,mcc,39.17
2023-07-10T00:42:00,mcc,38.64
2023-07-10T00:43:00,mcc,40.91
2023-07-10T00:44:00,mcc,37.43
2023-07-10T00:45:00,mcc,37.70
2023-07-10T00:46:00,mcc,38.16
2023-07-10T00:47:00,mcc,38.42
2023-07-10T00:48:00,mcc,39.32
2023-07-10T00:49:00,mcc,36.10
2023-07-10T00:50:00,mcc,38.20
2023-07-10T00:51:00,mcc,36.52
2023-07-10T00:52:00,mcc,36.91
2023-07-10T00:53:00,mcc,36.85
2023-07-10T00:54:00,mcc,37.19
2023-07-10T00:55:00,mcc,37.74
2023-07-10T00:56:00,mcc,46.59
2023-07-10T00:57:00,mcc,40.94
2023-07-10T00:58:00,mcc,39.12
2023-07-10T00:59:00,mcc,39.36
2023-07-10T01:00:00,mcc,39.66
2023-07-10T01:01:00,mcc,39.85
2023-07-10T01:02:00,mcc,40.12
2023-07-10T01:03:00,mcc,40.55
2023-07-10T01:04:00,mcc,42.19
2023-07-10T01:05:00,mcc,39.79
2023-07-10T01:06:00,mcc,40.42
2023-07-10T01:07:00,mcc,37.66
2023-07-10T01:08:00,mcc,36.05
2023-07-10T01:09:00,mcc,36.68
2023-07-10T01:10:00,mcc,37.59
2023-07-10T01:11:00,mcc,38.87
2023-07-10T01:12:00,mcc,36.48
2023-07-10T01:13:00,mcc,36.48
2023-07-10T01:14:00,mcc,38.16
2023-07-10T01:15:00,mcc,36.03
2023-07-10T01:16:00,mcc,38.12
2023-07-10T01:17:00,mcc,37.40
2023-07-10T01:18:00,mcc,39.04
2023-07-10T01:19:00,mcc,36.39
2023-07-10T01:20:00,mcc,36.08
2023-07-10T01:21:00,mcc,37.63
2023-07-10T01:22:00,mcc,37.48
2023-07-10T01:23:00,mcc,39.45
2023-07-10T01:24:00,mcc,39.32
2023-07-10T01:25:00,mcc,39.59
2023-07-10T01:26:00,mcc,36.77
2023-07-10T01:27:00,mcc,36.93
2023-07-10T01:28:00,mcc,39.22
2023-07-10T01:29:00,mcc,41.20
2023-07-10T01:30:00,mcc,40.11
2023-07-10T01:31:00,mcc,41.24
2023-07-10T01:32:00,mcc,40.18
2023-07-10T01:33:00,mcc,39.37
2023-07-10T01:34:00,mcc,40.59
2023-07-10T01:35:00,mcc,39.70
2023-07-10T01:36:00,mcc,39.77
2023-07-10T01:37:00,mcc,40.67
2023-07-10T01:38:00,mcc,41.34
2023-07-10T01:39:00,mcc,48.25
2023-07-10T01:40:00,mcc,36.55
2023-07-10T01:41:00,mcc,36.19
2023-07-10T01:42:00,mcc,36.15
2023-07-10T01:43:00,mcc,35.90
2023-07-10T01:44:00,mcc,37.36
2023-07-10T01:45:00,mcc,36.78
2023-07-10T01:46:00,mcc,35.64
2023-07-10T01:47:00,mcc,35.40
2023-07-10T01:48:00,mcc,35.39
2023-07-10T01:49:00,mcc,36.24
2023-07-10T01:50:00,mcc,36.02
2023-07-10T01:51:00,mcc,43.57
2023-07-10T01:52:00,mcc,45.11
2023-07-10T01:53:00,mcc,44.94
2023-07-10T01:54:00,mcc,43.07
2023-07-10T01:55:00,mcc,36.21
2023-07-10T01:56:00,mcc,35.83
2023-07-10T01:57:00,mcc,37.09
2023-07-10T01:58:00,mcc,37.62
2023-07-10T01:59:00,mcc,40.49
2023-07-10T02:00:00,mcc,38.40
2023-07-10T02:01:00,mcc,36.26
2023-07-10T02:02:00,mcc,35.37
2023-07-10T02:03:00,mcc,33.29
2023-07-10T02:04:00,mcc,35.27
2023-07-10T02:05:00,mcc,38.75
2023-07-10T02:06:00,mcc,40.89
2023-07-10T02:07:00,mcc,40.52
2023-07-10T02:08:00,mcc,37.54
2023-07-10T02:09:00,mcc,37.85
2023-07-10T02:10:00,mcc,38.18
2023-07-10T02:11:00,mcc,38.71
2023-07-10T02:12:00,mcc,40.46
2023-07-10T02:13:00,mcc,39.47
2023-07-10T02:14:00,mcc,38.54
2023-07-10T02:15:00,mcc,36.10
2023-07-10T02:16:00,mcc,36.03
2023-07-10T02:17:00,mcc,39.60
2023-07-10T02:18:00,mcc,40.18
2023-07-10T02:19:00,mcc,40.28
2023-07-10T02:20:00,mcc,40.92
2023-07-10T02:21:00,mcc,48.26
2023-07-10T02:22:00,mcc,36.46
2023-07-10T02:23:00,mcc,36.55
2023-07-10T02:24:00,mcc,36.09
2023-07-10T02:25:00,mcc,37.15
2023-07-10T02:26:00,mcc,37.41
2023-07-10T02:27:00,mcc,37.87
2023-07-10T02:28:00,mcc,38.60
2023-07-10T02:29:00,mcc,39.09
2023-07-10T02:30:00,mcc,38.40
2023-07-10T02:31:00,mcc,38.40
2023-07-10T02:32:00,mcc,37.49
2023-07-10T02:33:00,mcc,37.32
2023-07-10T02:34:00,mcc,36.04
2023-07-10T02:35:00,mcc,36.05
2023-07-10T02:36:00,mcc,38.89
2023-07-10T02:37:00,mcc,38.67
2023-07-10T02:38:00,mcc,38.34
2023-07-10T02:39:00,mcc,38.50
2023-07-10T02:40:00,mcc,38.31
2023-07-10T02:41:00,mcc,46.05
2023-07-10T02:42:00,mcc,38.64
2023-07-10T02:43:00,mcc,40.52
2023-07-10T02:44:00,mcc,40.95
2023-07-10T02:45:00,mcc,40.30
2023-07-10T02:46:00,mcc,38.22
2023-07-10T02:47:00,mcc,38.75
2023-07-10T02:48:00,mcc,38.81
2023-07-10T02:49:00,mcc,38.21
2023-07-10T02:50:00,mcc,37.25
2023-07-10T02:51:00,mcc,37.69
2023-07-10T02:52:00,mcc,37.43
2023-07-10T02:53:00,mcc,37.82
2023-07-10T02:54:00,mcc,38.84
2023-07-10T02:55:00,mcc,40.00
2023-07-10T02:56:00,mcc,39.85
2023-07-10T02:57:00,mcc,39.98
2023-07-10T02:58:00,mcc,39.90
2023-07-10T02:59:00,mcc,38.09
2023-07-10T03:00:00,mcc,38.31
2023-07-10T03:01:00,mcc,45.33
2023-07-10T03:02:00,mcc,36.63
2023-07-10T03:03:00,mcc,35.98
2023-07-10T03:04:00,mcc,36.46
2023-07-10T03:05:00,mcc,37.76
2023-07-10T03:06:00,mcc,39.17
2023-07-10T03:07:00,mcc,39.15
2023-07-10T03:08:00,mcc,39.15
2023-07-10T03:09:00,mcc,39.91
2023-07-10T03:10:00,mcc,40.68
2023-07-10T03:11:00,mcc,41.50
2023-07-10T03:12:00,mcc,39.74
2023-07-10T03:13:00,mcc,40.30
2023-07-10T03:14:00,mcc,40.17
2023-07-10T03:15:00,mcc,38.66
2023-07-10T03:16:00,mcc,38.92
2023-07-10T03:17:00,mcc,38.80
2023-07-10T03:18:00,mcc,37.31
2023-07-10T03:19:00,mcc,38.28
2023-07-10T03:20:00,mcc,38.63
2023-07-10T03:21:00,mcc,46.26
2023-07-10T03:22:00,mcc,39.27
2023-07-10T03:23:00,mcc,39.51
2023-07-10T03:24:00,mcc,39.37
2023-07-10T03:25:00,mcc,38.73
2023-07-10T03:26:00,mcc,40.37
2023-07-10T03:27:00,mcc,40.38
2023-07-10T03:28:00,mcc,36.27
2023-07-10T03:29:00,mcc,36.20
2023-07-10T03:30:00,mcc,36.82
2023-07-10T03:31:00,mcc,37.21
2023-07-10T03:32:00,mcc,37.35
2023-07-10T03:33:00,mcc,38.04
2023-07-10T03:34:00,mcc,37.95
2023-07-10T03:35:00,mcc,36.38
2023-07-10T03:36:00,mcc,35.15
2023-07-10T03:37:00,mcc,36.84
2023-07-10T03:38:00,mcc,37.32
2023-07-10T03:39:00,mcc,36.48
2023-07-10T03:40:00,mcc,37.85
2023-07-10T03:41:00,mcc,47.10
2023-07-10T03:42:00,mcc,38.29
2023-07-10T03:43:00,mcc,38.98
2023-07-10T03:44:00,mcc,38.28
2023-07-10T03:45:00,mcc,38.36
2023-07-10T03:46:00,mcc,37.99
2023-07-10T03:47:00,mcc,38.78
2023-07-10T03:48:00,mcc,40.90
2023-07-10T03:49:00,mcc,39.22
2023-07-10T03:50:00,mcc,39.79
2023-07-10T03:51:00,mcc,36.87
2023-07-10T03:52:00,mcc,34.51
2023-07-10T03:53:00,mcc,35.19
2023-07-10T03:54:00,mcc,36.32
2023-07-10T03:55:00,mcc,39.79
2023-07-10T03:56:00,mcc,38.64
2023-07-10T03:57:00,mcc,37.12
2023-07-10T03:58:00,mcc,36.23
2023-07-10T03:59:00,mcc,36.15
2023-07-10T04:00:00,mcc,37.15
2023-07-10T04:01:00,mcc,36.11
2023-07-10T04:02:00,mcc,36.83
2023-07-10T04:03:00,mcc,45.99
2023-07-10T04:04:00,mcc,35.74
2023-07-10T04:05:00,mcc,34.77
2023-07-10T04:06:00,mcc,34.85
2023-07-10T04:07:00,mcc,35.23
2023-07-10T04:08:00,mcc,35.30
2023-07-10T04:09:00,mcc,36.09
2023-07-10T04:10:00,mcc,36.25
2023-07-10T04:11:00,mcc,36.98
2023-07-10T04:12:00,mcc,35.95
2023-07-10T04:13:00,mcc,36.12
2023-07-10T04:14:00,mcc,35.70
2023-07-10T04:15:00,mcc,38.91
2023-07-10T04:16:00,mcc,39.23
2023-07-10T04:17:00,mcc,39.20
2023-07-10T04:18:00,mcc,43.34
2023-07-10T04:19:00,mcc,41.15
2023-07-10T04:20:00,mcc,41.99
2023-07-10T04:21:00,mcc,42.09
2023-07-10T04:22:00,mcc,40.99
2023-07-10T04:23:00,mcc,40.53
2023-07-10T04:24:00,mcc,38.83
2023-07-10T04:25:00,mcc,38.53
2023-07-10T04:26:00,mcc,36.33
2023-07-10T04:27:00,mcc,35.79
2023-07-10T04:28:00,mcc,36.78
2023-07-10T04:29:00,mcc,36.73
2023-07-10T04:30:00,mcc,37.01
2023-07-10T04:31:00,mcc,36.58
2023-07-10T04:32:00,mcc,38.37
2023-07-10T04:33:00,mcc,37.73
2023-07-10T04:34:00,mcc,35.63
2023-07-10T04:35:00,mcc,34.73
2023-07-10T04:36:00,mcc,35.48
2023-07-10T04:37:00,mcc,36.14
2023-07-10T04:38:00,mcc,36.00
2023-07-10T04:39:00,mcc,35.02
2023-07-10T04:40:00,mcc,35.88
2023-07-10T04:41:00,mcc,33.56
2023-07-10T04:42:00,mcc,34.00
2023-07-10T04:43:00,mcc,42.27
2023-07-10T04:44:00,mcc,36.05
2023-07-10T04:45:00,mcc,37.83
2023-07-10T04:46:00,mcc,36.90
2023-07-10T04:47:00,mcc,38.26
2023-07-10T04:48:00,mcc,40.18
2023-07-10T04:49:00,mcc,39.40
2023-07-10T04:50:00,mcc,49.41
2023-07-10T04:51:00,mcc,47.48
2023-07-10T04:52:00,mcc,47.09
2023-07-10T04:53:00,mcc,41.71
2023-07-10T04:54:00,mcc,42.63
2023-07-10T04:55:00,mcc,42.87
2023-07-10T04:56:00,mcc,40.02
2023-07-10T04:57:00,mcc,39.58
2023-07-10T04:58:00,mcc,39.82
2023-07-10T04:59:00,mcc,42.04
2023-07-10T05:00:00,mcc,41.11
2023-07-10T05:01:00,mcc,41.24
2023-07-10T05:02:00,mcc,39.92
2023-07-10T05:03:00,mcc,48.38
2023-07-10T05:04:00,mcc,40.02
2023-07-10T05:05:00,mcc,39.82
2023-07-10T05:06:00,mcc,41.32
2023-07-10T05:07:00,mcc,39.20
2023-07-10T05:08:00,mcc,40.58
2023-07-10T05:09:00,mcc,42.90
2023-07-10T05:10:00,mcc,42.23
2023-07-10T05:11:00,mcc,40.20
2023-07-10T05:12:00,mcc,39.18
2023-07-10T05:13:00,mcc,38.60
2023-07-10T05:14:00,mcc,38.54
2023-07-10T05:15:00,mcc,37.36
2023-07-10T05:16:00,mcc,36.19
2023-07-10T05:17:00,mcc,36.11
2023-07-10T05:18:00,mcc,36.83
2023-07-10T05:19:00,mcc,35.47
2023-07-10T05:20:00,mcc,37.14
2023-07-10T05:21:00,mcc,36.68
2023-07-10T05:22:00,mcc,39.15
2023-07-10T05:23:00,mcc,46.88
2023-07-10T05:24:00,mcc,40.97
2023-07-10T05:25:00,mcc,42.12
2023-07-10T05:26:00,mcc,40.72
2023-07-10T05:27:00,mcc,41.18
2023-07-10T05:28:00,mcc,40.36
2023-07-10T05:29:00,mcc,36.22
2023-07-10T05:30:00,mcc,35.92
2023-07-10T05:31:00,mcc,34.22
2023-07-10T05:32:00,mcc,38.47
2023-07-10T05:33:00,mcc,38.89
2023-07-10T05:34:00,mcc,36.30
2023-07-10T05:35:00,mcc,36.53
2023-07-10T05:36:00,mcc,36.03
2023-07-10T05:37:00,mcc,36.20
2023-07-10T05:38:00,mcc,36.00
2023-07-10T05:39:00,mcc,36.78
2023-07-10T05:40:00,mcc,35.94
2023-07-10T05:41:00,mcc,34.50
2023-07-10T05:42:00,mcc,34.77
2023-07-10T05:43:00,mcc,35.40
2023-07-10T05:44:00,mcc,35.60
2023-07-10T05:45:00,mcc,35.68
2023-07-10T05:46:00,mcc,38.23
2023-07-10T05:47:00,mcc,49.79
2023-07-10T05:48:00,mcc,52.27
2023-07-10T05:49:00,mcc,52.70
2023-07-10T05:50:00,mcc,52.54
2023-07-10T05:51:00,mcc,51.63
2023-07-10T05:52:00,mcc,51.28
2023-07-10T05:53:00,mcc,55.39
2023-07-10T05:54:00,mcc,56.92
2023-07-10T05:55:00,mcc,56.44
2023-07-10T05:56:00,mcc,53.67
2023-07-10T05:57:00,mcc,53.59
2023-07-10T05:58:00,mcc,54.38
2023-07-10T05:59:00,mcc,54.97
2023-07-10T06:00:00,mcc,47.56
2023-07-10T06:01:00,mcc,50.70
2023-07-10T06:02:00,mcc,51.24
2023-07-10T06:03:00,mcc,50.00
2023-07-10T06:04:00,mcc,50.45
2023-07-10T06:05:00,mcc,50.25
2023-07-10T06:06:00,mcc,50.24
2023-07-10T06:07:00,mcc,48.06
2023-07-10T06:08:00,mcc,48.49
2023-07-10T06:09:00,mcc,48.45
2023-07-10T06:10:00,mcc,45.00
2023-07-10T06:11:00,mcc,46.67
2023-07-10T06:12:00,mcc,47.90
2023-07-10T06:13:00,mcc,56.89
2023-07-10T06:14:00,mcc,50.40
2023-07-10T06:15:00,mcc,51.85
2023-07-10T06:16:00,mcc,52.35
2023-07-10T06:17:00,mcc,50.67
2023-07-10T06:18:00,mcc,50.85
2023-07-10T06:19:00,mcc,58.04
2023-07-10T06:20:00,mcc,49.82
2023-07-10T06:21:00,mcc,48.43
2023-07-10T06:22:00,mcc,51.22
2023-07-10T06:23:00,mcc,57.81
2023-07-10T06:24:00,mcc,53.14
2023-07-10T06:25:00,mcc,60.16
2023-07-10T06:26:00,mcc,60.06
2023-07-10T06:27:00,mcc,59.03
2023-07-10T06:28:00,mcc,55.56
2023-07-10T06:29:00,mcc,57.77
2023-07-10T06:30:00,mcc,63.50
2023-07-10T06:31:00,mcc,56.04
2023-07-10T06:32:00,mcc,55.18
2023-07-10T06:33:00,mcc,53.92
2023-07-10T06:34:00,mcc,59.46
2023-07-10T06:35:00,mcc,64.94
2023-07-10T06:36:00,mcc,71.23
2023-07-10T06:37:00,mcc,60.13
2023-07-10T06:38:00,mcc,57.28
2023-07-10T06:39:00,mcc,71.76
2023-07-10T06:40:00,mcc,68.90
2023-07-10T06:41:00,mcc,57.89
2023-07-10T06:42:00,mcc,61.26
2023-07-10T06:43:00,mcc,66.83
2023-07-10T06:44:00,mcc,51.17
2023-07-10T06:45:00,mcc,47.68
2023-07-10T06:46:00,mcc,49.14
2023-07-10T06:47:00,mcc,49.52
2023-07-10T06:48:00,mcc,53.13
2023-07-10T06:49:00,mcc,51.57
2023-07-10T06:50:00,mcc,53.72
2023-07-10T06:51:00,mcc,60.03
2023-07-10T06:52:00,mcc,59.62
2023-07-10T06:53:00,mcc,58.33
2023-07-10T06:54:00,mcc,67.86
2023-07-10T06:55:00,mcc,70.83
2023-07-10T06:56:00,mcc,76.61
2023-07-10T06:57:00,mcc,61.75
2023-07-10T06:58:00,mcc,53.13
2023-07-10T06:59:00,mcc,55.20
2023-07-10T07:00:00,mcc,54.44
2023-07-10T07:01:00,mcc,66.67
2023-07-10T07:02:00,mcc,67.07
2023-07-10T07:03:00,mcc,58.98
2023-07-10T07:04:00,mcc,54.82
2023-07-10T07:05:00,mcc,60.75
2023-07-10T07:06:00,mcc,77.31
2023-07-10T07:07:00,mcc,53.32
2023-07-10T07:08:00,mcc,52.86
2023-07-10T07:09:00,mcc,55.41
2023-07-10T07:10:00,mcc,56.54
2023-07-10T07:11:00,mcc,53.49
2023-07-10T07:12:00,mcc,53.04
2023-07-10T07:13:00,mcc,53.87
2023-07-10T07:14:00,mcc,54.04
2023-07-10T07:15:00,mcc,61.63
2023-07-10T07:16:00,mcc,76.12
2023-07-10T07:17:00,mcc,69.23
2023-07-10T07:18:00,mcc,63.41
2023-07-10T07:19:00,mcc,78.13
2023-07-10T07:20:00,mcc,62.86
2023-07-10T07:21:00,mcc,60.87
2023-07-10T07:22:00,mcc,61.39
2023-07-10T07:23:00,mcc,53.19
2023-07-10T07:24:00,mcc,52.04
2023-07-10T07:25:00,mcc,61.14
2023-07-10T07:26:00,mcc,62.22
2023-07-10T07:27:00,mcc,56.88
2023-07-10T07:28:00,mcc,56.52
2023-07-10T07:29:00,mcc,57.38
2023-07-10T07:30:00,mcc,51.65
2023-07-10T07:31:00,mcc,52.03
2023-07-10T07:32:00,mcc,56.61
2023-07-10T07:33:00,mcc,54.20
2023-07-10T07:34:00,mcc,54.41
2023-07-10T07:35:00,mcc,66.10
2023-07-10T07:36:00,mcc,49.89
2023-07-10T07:37:00,mcc,50.77
2023-07-10T07:38:00,mcc,51.55
2023-07-10T07:39:00,mcc,54.03
2023-07-10T07:40:00,mcc,52.93
2023-07-10T07:41:00,mcc,52.48
2023-07-10T07:42:00,mcc,53.98
2023-07-10T07:43:00,mcc,60.83
2023-07-10T07:44:00,mcc,50.47
2023-07-10T07:45:00,mcc,49.48
2023-07-10T07:46:00,mcc,52.83
2023-07-10T07:47:00,mcc,54.97
2023-07-10T07:48:00,mcc,54.00
2023-07-10T07:49:00,mcc,53.71
2023-07-10T07:50:00,mcc,59.43
2023-07-10T07:51:00,mcc,56.42
2023-07-10T07:52:00,mcc,57.91
2023-07-10T07:53:00,mcc,57.25
2023-07-10T07:54:00,mcc,56.65
2023-07-10T07:55:00,mcc,56.07
2023-07-10T07:56:00,mcc,56.07
2023-07-10T07:57:00,mcc,56.35
2023-07-10T07:58:00,mcc,56.50
2023-07-10T07:59:00,mcc,57.50
2023-07-10T08:00:00,mcc,57.67
2023-07-10T08:01:00,mcc,59.20
2023-07-10T08:02:00,mcc,66.99
2023-07-10T08:03:00,mcc,74.29
2023-07-10T08:04:00,mcc,58.29
2023-07-10T08:05:00,mcc,56.76
2023-07-10T08:06:00,mcc,55.44
2023-07-10T08:07:00,mcc,55.86
2023-07-10T08:08:00,mcc,56.75
2023-07-10T08:09:00,mcc,54.82
2023-07-10T08:10:00,mcc,55.36
2023-07-10T08:11:00,mcc,54.57
2023-07-10T08:12:00,mcc,52.34
2023-07-10T08:13:00,mcc,53.84
2023-07-10T08:14:00,mcc,52.85
2023-07-10T08:15:00,mcc,65.25
2023-07-10T08:16:00,mcc,63.08
2023-07-10T08:17:00,mcc,55.54
2023-07-10T08:18:00,mcc,55.52
2023-07-10T08:19:00,mcc,57.02
2023-07-10T08:20:00,mcc,56.50
2023-07-10T08:21:00,mcc,63.90
2023-07-10T08:22:00,mcc,56.39
2023-07-10T08:23:00,mcc,56.20
2023-07-10T08:24:00,mcc,53.74
2023-07-10T08:25:00,mcc,54.15
2023-07-10T08:26:00,mcc,55.19
2023-07-10T08:27:00,mcc,56.12
2023-07-10T08:28:00,mcc,63.38
2023-07-10T08:29:00,mcc,57.12
2023-07-10T08:30:00,mcc,56.96
2023-07-10T08:31:00,mcc,57.15
2023-07-10T08:32:00,mcc,56.92
2023-07-10T08:33:00,mcc,65.17
2023-07-10T08:34:00,mcc,64.08
2023-07-10T08:35:00,mcc,63.92
2023-07-10T13:48:00,mcc,61.30
2023-07-10T13:49:00,mcc,52.47
2023-07-10T13:50:00,mcc,52.95
2023-07-10T13:51:00,mcc,52.18
2023-07-10T13:52:00,mcc,52.16
2023-07-10T13:53:00,mcc,53.78
2023-07-10T13:54:00,mcc,52.67
2023-07-10T13:55:00,mcc,52.49
2023-07-10T13:56:00,mcc,50.26
2023-07-10T13:57:00,mcc,50.45
2023-07-10T13:58:00,mcc,50.37
2023-07-10T13:59:00,mcc,52.37
2023-07-10T14:00:00,mcc,55.75
2023-07-10T14:01:00,mcc,53.17
2023-07-10T14:02:00,mcc,53.06
2023-07-10T14:03:00,mcc,52.61
2023-07-10T14:04:00,mcc,60.65
2023-07-10T14:05:00,mcc,53.41
2023-07-10T14:06:00,mcc,52.00
2023-07-10T14:07:00,mcc,51.65
2023-07-10T14:08:00,mcc,51.96
2023-07-10T14:09:00,mcc,52.23
2023-07-10T14:10:00,mcc,51.92
2023-07-10T14:11:00,mcc,53.52
2023-07-10T14:12:00,mcc,53.95
2023-07-10T14:13:00,mcc,53.79
2023-07-10T14:14:00,mcc,54.84
2023-07-10T14:15:00,mcc,53.24
2023-07-10T14:16:00,mcc,54.16
2023-07-10T14:17:00,mcc,53.35
2023-07-10T14:18:00,mcc,52.67
2023-07-10T14:19:00,mcc,53.99
2023-07-10T14:20:00,mcc,51.50
2023-07-10T14:21:00,mcc,49.41
2023-07-10T14:22:00,mcc,49.77
2023-07-10T14:23:00,mcc,48.69
2023-07-10T14:24:00,mcc,56.43
2023-07-10T14:25:00,mcc,60.43
2023-07-10T14:26:00,mcc,46.79
2023-07-10T14:27:00,mcc,49.35
2023-07-10T14:28:00,mcc,46.38
2023-07-10T14:29:00,mcc,46.38
2023-07-10T14:30:00,mcc,48.20
2023-07-10T14:31:00,mcc,49.68
2023-07-10T14:32:00,mcc,49.48
2023-07-10T14:33:00,mcc,48.69
2023-07-10T14:34:00,mcc,49.81
2023-07-10T14:35:00,mcc,47.33
2023-07-10T14:36:00,mcc,49.82
2023-07-10T14:37:00,mcc,50.12
2023-07-10T14:38:00,mcc,51.91
2023-07-10T14:39:00,mcc,51.83
2023-07-10T14:40:00,mcc,53.86
2023-07-10T14:41:00,mcc,54.83
2023-07-10T14:42:00,mcc,54.14
2023-07-10T14:43:00,mcc,49.65
2023-07-10T14:44:00,mcc,50.70
2023-07-10T14:45:00,mcc,49.27
2023-07-10T14:46:00,mcc,50.04
2023-07-10T14:47:00,mcc,50.36
2023-07-10T14:48:00,mcc,52.31
2023-07-10T14:49:00,mcc,53.15
2023-07-10T14:50:00,mcc,51.67
2023-07-10T14:51:00,mcc,49.91
2023-07-10T14:52:00,mcc,50.91
2023-07-10T14:53:00,mcc,52.32
2023-07-10T14:54:00,mcc,51.96
2023-07-10T14:55:00,mcc,51.22
2023-07-10T14:56:00,mcc,54.43
2023-07-10T14:57:00,mcc,57.67
2023-07-10T14:58:00,mcc,55.21
2023-07-10T14:59:00,mcc,55.43
2023-07-10T15:00:00,mcc,53.99
2023-07-10T15:01:00,mcc,55.38
2023-07-10T15:02:00,mcc,54.95
2023-07-10T15:03:00,mcc,54.70
2023-07-10T15:04:00,mcc,56.64
2023-07-10T15:05:00,mcc,64.41
2023-07-10T15:06:00,mcc,50.96
2023-07-10T15:07:00,mcc,52.52
2023-07-10T15:08:00,mcc,51.01
2023-07-10T15:09:00,mcc,52.84
2023-07-10T15:10:00,mcc,53.85
2023-07-10T15:11:00,mcc,52.33
2023-07-10T15:12:00,mcc,54.24
2023-07-10T15:13:00,mcc,55.24
2023-07-10T15:14:00,mcc,52.46
2023-07-10T15:15:00,mcc,53.48
2023-07-10T15:16:00,mcc,52.59
2023-07-10T15:17:00,mcc,53.58
2023-07-10T15:18:00,mcc,48.73
2023-07-10T15:19:00,mcc,49.73
2023-07-10T15:20:00,mcc,56.84
2023-07-10T15:21:00,mcc,56.52
2023-07-10T15:22:00,mcc,57.15
2023-07-10T15:23:00,mcc,57.28
2023-07-10T15:24:00,mcc,50.37
2023-07-10T15:25:00,mcc,58.83
2023-07-10T15:26:00,mcc,57.39
2023-07-10T15:27:00,mcc,56.43
2023-07-10T15:28:00,mcc,55.71
2023-07-10T15:29:00,mcc,49.69
2023-07-10T15:30:00,mcc,49.37
2023-07-10T15:31:00,mcc,49.83
2023-07-10T15:32:00,mcc,56.78
2023-07-10T15:33:00,mcc,55.52
2023-07-10T15:34:00,mcc,56.05
2023-07-10T15:35:00,mcc,54.79
2023-07-10T15:36:00,mcc,47.96
2023-07-10T15:37:00,mcc,48.48
2023-07-10T15:38:00,mcc,51.67
2023-07-10T15:39:00,mcc,51.84
2023-07-10T15:40:00,mcc,50.23
2023-07-10T15:41:00,mcc,50.56
2023-07-10T15:42:00,mcc,52.55
2023-07-10T15:43:00,mcc,53.50
2023-07-10T15:44:00,mcc,62.09
2023-07-10T15:45:00,mcc,55.10
2023-07-10T15:46:00,mcc,51.85
2023-07-10T15:47:00,mcc,49.82
2023-07-10T15:48:00,mcc,50.27
2023-07-10T15:49:00,mcc,49.22
2023-07-10T15:50:00,mcc,47.32
2023-07-10T15:51:00,mcc,48.63
2023-07-10T15:52:00,mcc,48.96
2023-07-10T15:53:00,mcc,49.42
2023-07-10T15:54:00,mcc,49.45
2023-07-10T15:55:00,mcc,48.21
2023-07-10T15:56:00,mcc,48.08
2023-07-10T15:57:00,mcc,48.07
2023-07-10T15:58:00,mcc,47.86
2023-07-10T15:59:00,mcc,49.79
2023-07-10T16:00:00,mcc,51.01
2023-07-10T16:01:00,mcc,51.66
2023-07-10T16:02:00,mcc,51.98
2023-07-10T16:03:00,mcc,52.23
2023-07-10T16:04:00,mcc,51.83
2023-07-10T16:05:00,mcc,58.95
2023-07-10T16:06:00,mcc,52.96
2023-07-10T16:07:00,mcc,51.77
2023-07-10T16:08:00,mcc,51.78
2023-07-10T16:09:00,mcc,50.45
2023-07-10T16:10:00,mcc,52.29
2023-07-10T16:11:00,mcc,52.73
2023-07-10T16:12:00,mcc,52.89
2023-07-10T16:13:00,mcc,51.74
2023-07-10T16:14:00,mcc,50.29
2023-07-10T16:15:00,mcc,49.61
2023-07-10T16:16:00,mcc,47.62
2023-07-10T16:17:00,mcc,49.08
2023-07-10T16:18:00,mcc,48.58
2023-07-10T16:19:00,mcc,48.84
2023-07-10T16:20:00,mcc,47.46
2023-07-10T16:21:00,mcc,49.20
2023-07-10T16:22:00,mcc,48.17
2023-07-10T16:23:00,mcc,48.50
2023-07-10T16:24:00,mcc,48.07
2023-07-10T16:25:00,mcc,57.57
2023-07-10T16:26:00,mcc,50.13
2023-07-10T16:27:00,mcc,48.93
2023-07-10T16:28:00,mcc,50.75
2023-07-10T16:29:00,mcc,50.71
2023-07-10T16:30:00,mcc,50.19
2023-07-10T16:31:00,mcc,48.56
2023-07-10T16:32:00,mcc,46.99
2023-07-10T16:33:00,mcc,57.18
2023-07-10T16:34:00,mcc,56.61
2023-07-10T16:35:00,mcc,56.90
2023-07-10T16:36:00,mcc,57.33
2023-07-10T16:37:00,mcc,47.08
2023-07-10T16:38:00,mcc,45.83
2023-07-10T16:39:00,mcc,47.47
2023-07-10T16:40:00,mcc,50.12
2023-07-10T16:41:00,mcc,49.69
2023-07-10T16:42:00,mcc,50.50
2023-07-10T16:43:00,mcc,50.59
2023-07-10T16:44:00,mcc,48.84
2023-07-10T16:45:00,mcc,56.73
2023-07-10T16:46:00,mcc,47.93
2023-07-10T16:47:00,mcc,47.52
2023-07-10T16:48:00,mcc,47.37
2023-07-10T16:49:00,mcc,46.36
2023-07-10T16:50:00,mcc,47.60
2023-07-10T16:51:00,mcc,50.69
2023-07-10T16:52:00,mcc,50.23
2023-07-10T16:53:00,mcc,49.41
2023-07-10T16:54:00,mcc,48.65
2023-07-10T16:55:00,mcc,48.11
2023-07-10T16:56:00,mcc,48.88
2023-07-10T16:57:00,mcc,47.39
2023-07-10T16:58:00,mcc,47.81
2023-07-10T16:59:00,mcc,47.39
2023-07-10T17:00:00,mcc,47.19
2023-07-10T17:01:00,mcc,47.09
2023-07-10T17:02:00,mcc,47.18
2023-07-10T17:03:00,mcc,48.23
2023-07-10T17:04:00,mcc,48.63
2023-07-10T17:05:00,mcc,57.02
2023-07-10T17:06:00,mcc,49.09
2023-07-10T17:07:00,mcc,52.74
2023-07-10T17:08:00,mcc,50.50
2023-07-10T17:09:00,mcc,51.10
2023-07-10T17:10:00,mcc,51.22
2023-07-10T17:11:00,mcc,52.30
2023-07-10T17:12:00,mcc,51.46
2023-07-10T17:13:00,mcc,52.05
2023-07-10T17:14:00,mcc,52.12
2023-07-10T17:15:00,mcc,50.53
2023-07-10T17:16:00,mcc,49.39
2023-07-10T17:17:00,mcc,46.61
2023-07-10T17:18:00,mcc,47.27
2023-07-10T17:19:00,mcc,48.33
2023-07-10T17:20:00,mcc,47.18
2023-07-10T17:21:00,mcc,45.96
2023-07-10T17:22:00,mcc,46.25
2023-07-10T17:23:00,mcc,47.85
2023-07-10T17:24:00,mcc,47.31
2023-07-10T17:25:00,mcc,49.20
2023-07-10T17:26:00,mcc,47.95
2023-07-10T17:27:00,mcc,46.80
2023-07-10T17:28:00,mcc,46.48
2023-07-10T17:29:00,mcc,46.42
2023-07-10T17:30:00,mcc,47.68
2023-07-10T17:31:00,mcc,46.40
2023-07-10T17:32:00,mcc,48.08
2023-07-10T17:33:00,mcc,47.36
2023-07-10T17:34:00,mcc,47.36
2023-07-10T17:35:00,mcc,47.86
2023-07-10T17:36:00,mcc,48.92
2023-07-10T17:37:00,mcc,48.00
2023-07-10T17:38:00,mcc,48.79
2023-07-10T17:39:00,mcc,51.26
2023-07-10T17:40:00,mcc,51.22
2023-07-10T17:41:00,mcc,51.33
2023-07-10T17:42:00,mcc,50.81
2023-07-10T17:43:00,mcc,47.07
2023-07-10T17:44:00,mcc,46.72
2023-07-10T17:45:00,mcc,47.86
2023-07-10T17:46:00,mcc,57.20
2023-07-10T17:47:00,mcc,48.56
2023-07-10T17:48:00,mcc,46.29
2023-07-10T17:49:00,mcc,46.66
2023-07-10T17:50:00,mcc,45.72
2023-07-10T17:51:00,mcc,45.19
2023-07-10T17:52:00,mcc,44.45
2023-07-10T17:53:00,mcc,44.62
2023-07-10T17:54:00,mcc,47.64
2023-07-10T17:55:00,mcc,48.35
2023-07-10T17:56:00,mcc,49.51
2023-07-10T17:57:00,mcc,49.23
2023-07-10T17:58:00,mcc,48.35
2023-07-10T17:59:00,mcc,48.64
2023-07-10T18:00:00,mcc,46.61
2023-07-10T18:01:00,mcc,46.77
2023-07-10T18:02:00,mcc,47.77
2023-07-10T18:03:00,mcc,46.47
2023-07-10T18:04:00,mcc,46.11
2023-07-10T18:05:00,mcc,46.63
2023-07-10T18:06:00,mcc,46.50
2023-07-10T18:07:00,mcc,46.76
2023-07-10T18:08:00,mcc,47.48
2023-07-10T18:09:00,mcc,47.29
2023-07-10T18:10:00,mcc,48.23
2023-07-10T18:11:00,mcc,49.11
2023-07-10T18:12:00,mcc,48.92
2023-07-10T18:13:00,mcc,50.45
2023-07-10T18:14:00,mcc,49.33
2023-07-10T18:15:00,mcc,49.89
2023-07-10T18:16:00,mcc,49.20
2023-07-10T18:17:00,mcc,49.37
2023-07-10T18:18:00,mcc,47.98
2023-07-10T18:19:00,mcc,46.14
2023-07-10T18:20:00,mcc,45.42
2023-07-10T18:21:00,mcc,44.01
2023-07-10T18:22:00,mcc,44.42
2023-07-10T18:23:00,mcc,44.66
2023-07-10T18:24:00,mcc,44.68
2023-07-10T18:25:00,mcc,45.95
2023-07-10T18:26:00,mcc,45.59
2023-07-10T18:27:00,mcc,46.15
2023-07-10T18:28:00,mcc,46.51
2023-07-10T18:29:00,mcc,45.79
2023-07-10T18:30:00,mcc,47.06